Weather History for Kisumu, Kenya

Change the Weather History Date:

Saturday, July 20, 2013

  Actual Average Record
Temperature  
Mean Temperature 72 °F -  
Max Temperature 85 °F - - ()
Min Temperature 60 °F - - ()
Cooling Degree Days 8    
Growing Degree Days 22 (Base 50)    
Moisture  
Dew Point 61 °F    
Average Humidity 64    
Maximum Humidity 100    
Minimum Humidity 30    
Precipitation  
Precipitation 0.00 in - - ()
Sea Level Pressure  
Sea Level Pressure 30.01 in    
Wind  
Wind Speed 4 mph ()    
Max Wind Speed 21 mph    
Max Gust Speed -    
Visibility 8.9 miles    
Events      
T = Trace of Precipitation, MM = Missing Value Source: Averaged Metar Reports

Daily Weather History Graph

Daily Weather History Graph

Search for Another Location

Airport:

Trip Planner

Search our weather history database for the weather conditions in past years. The results will help you decide how hot, cold, wet, or windy it might be!

Date:

Astronomy

Jul. 20, 2013 Rise Set
Actual Time 6:43 AM EAT 6:50 PM EAT
Civil Twilight 6:21 AM EAT 7:12 PM EAT
Nautical Twilight 5:56 AM EAT 7:38 PM EAT
Astronomical Twilight 5:30 AM EAT 8:04 PM EAT
Moon 4:34 PM EAT (7/20) 4:02 AM EAT (7/20)
Length of Visible Light 12h 51m
Length of Day
12h 06m
Waxing Gibbous, 92% of the Moon is Illuminated
Jul 20
Waxing Gibbous
Jul 22
Full
Jul 29
Last Quarter
Aug 7
New
Aug 14
First Quarter

Hourly Weather History & Observations

Time (EAT) Temp. Heat Index Dew Point Humidity Pressure Visibility Wind Dir Wind Speed Gust Speed Precip Events Conditions
12:00 AM 69.8 °F - 60.8 °F 73% 30.04 in - Calm Calm - N/A   Clear
1:00 AM - - - N/A% 30.06 in - Calm Calm - N/A   Unknown
2:00 AM 68.0 °F - 60.8 °F 78% 30.06 in - Calm Calm - N/A   Clear
3:00 AM 68 °F - 61 °F 73%  in 19 mi Calm Calm - -   Partly Cloudy
4:00 AM 68.0 °F - 60.8 °F 78% 30.04 in - Calm Calm - N/A   Clear
5:00 AM 66.2 °F - 60.8 °F 83% 30.04 in - Calm Calm - N/A   Clear
6:00 AM 64.4 °F - 59.0 °F 83% 30.01 in - Calm Calm - N/A   Clear
7:00 AM 53.6 °F - 53.6 °F 100% - - Calm Calm - N/A   Clear
8:00 AM 66.2 °F - 60.8 °F 83% 30.04 in 6.2 mi Calm Calm - N/A   Haze
9:00 AM 71 °F - 61 °F 62%  in 12 mi Calm Calm - -   Widespread Dust
10:00 AM 75.2 °F - 60.8 °F 61% 30.06 in - ESE 6.9 mph - N/A   Clear
11:00 AM 77.0 °F - 62.6 °F 61% 30.04 in 6.2 mi South 5.8 mph - N/A   Mostly Cloudy
12:00 PM 80.6 °F 81.8 °F 62.6 °F 54% 30.04 in 6.2 mi SSW 9.2 mph - N/A   Mostly Cloudy
1:00 PM 84.2 °F 84.4 °F 60.8 °F 45% 30.01 in 6.2 mi SW 9.2 mph - N/A   Mostly Cloudy
2:00 PM 84.2 °F 83.5 °F 57.2 °F 40% 29.98 in 6.2 mi WSW 11.5 mph - N/A   Mostly Cloudy
3:00 PM 84 °F - 58 °F 30%  in 12 mi WSW 11.5 mph - -   Scattered Clouds
4:00 PM 84.2 °F 84.4 °F 60.8 °F 45% 29.95 in 6.2 mi WSW 17.3 mph - N/A   Mostly Cloudy
5:00 PM 84.2 °F 84.4 °F 60.8 °F 45% 29.92 in 6.2 mi WSW 20.7 mph - N/A   Mostly Cloudy
6:00 PM 80.6 °F 81.5 °F 60.8 °F 51% 29.95 in 6.2 mi WSW 17.3 mph - N/A   Mostly Cloudy
7:00 PM 77.0 °F - 62.6 °F 61% 29.95 in 6.2 mi WSW 16.1 mph - N/A   Scattered Clouds
8:00 PM 75.2 °F - 62.6 °F 65% 29.98 in 6.2 mi West 11.5 mph - N/A   Scattered Clouds
9:00 PM 73 °F - 63 °F 62%  in 19 mi West 9.2 mph - -   Scattered Clouds
10:00 PM 73.4 °F - 62.6 °F 69% 30.01 in - WSW 5.8 mph - N/A   Clear
11:00 PM 71.6 °F - 60.8 °F 69% 30.01 in - Calm Calm - N/A   Clear